DW6623 Weather Reports


time (UTC)temp
F
wind
direction
speed
knots
gust
knots
rain 1hr
in
rain 24hr
in
rain mn
in
humidity
%
barometer
mb
20260505195028 83 195 10.4 20.9 0.00 0.00 0.00 70 1006.0
20260505194545 82 191 8.7 24.3 0.00 0.00 0.00 71 1006.0
20260505194029 82 191 13.0 24.3 0.00 0.00 0.00 72 1006.4
20260505193528 81 189 11.3 22.6 0.00 0.00 0.00 71 1006.4
20260505193045 81 182 9.6 20.0 0.00 0.00 0.00 72 1006.6
20260505192528 81 180 11.3 20.0 0.00 0.00 0.00 71 1006.6
20260505192027 82 174 10.4 20.0 0.00 0.00 0.00 72 1006.5
20260505191546 82 179 7.8 20.0 0.00 0.00 0.00 71 1006.5
20260505191028 82 202 7.0 20.0 0.00 0.00 0.00 71 1006.5
20260505190527 82 203 7.8 20.0 0.00 0.00 0.00 72 1006.5
20260505190041 81 207 9.6 19.1 0.00 0.00 0.00 72 1006.5
20260505185528 81 203 9.6 22.6 0.00 0.00 0.00 73 1006.4
20260505185033 81 181 10.4 22.6 0.00 0.00 0.00 73 1006.5
20260505184545 81 159 8.7 21.7 0.00 0.00 0.00 72 1006.5
20260505184031 80 159 5.2 21.7 0.00 0.00 0.00 74 1006.7
20260505183528 80 189 11.3 22.6 0.00 0.00 0.00 74 1006.7
20260505183055 80 165 10.4 22.6 0.00 0.00 0.00 73 1006.7
20260505182527 80 172 10.4 25.2 0.00 0.00 0.00 73 1006.7
20260505182026 80 200 10.4 25.2 0.00 0.00 0.00 73 1006.9
20260505181550 80 177 13.0 25.2 0.00 0.00 0.00 74 1006.9
20260505181027 79 177 15.6 26.9 0.00 0.00 0.00 74 1006.8
20260505180528 79 208 12.2 26.9 0.00 0.00 0.00 75 1007.0
20260505180050 79 166 10.4 24.3 0.00 0.00 0.00 76 1007.0
20260505175526 78 182 12.2 24.3 0.00 0.00 0.00 76 1007.2
20260505175029 78 146 10.4 29.5 0.00 0.00 0.00 76 1007.3
20260505174545 78 193 12.2 29.5 0.00 0.00 0.00 76 1007.4
20260505174027 78 211 13.0 22.6 0.00 0.00 0.00 76 1007.4
20260505173526 78 173 7.8 20.0 0.00 0.00 0.00 77 1007.4
20260505173045 78 163 10.4 20.0 0.00 0.00 0.00 77 1007.3
20260505172526 78 181 11.3 19.1 0.00 0.00 0.00 77 1007.1
20260505172029 78 198 9.6 20.0 0.00 0.00 0.00 77 1006.9
20260505171549 77 220 9.6 25.2 0.00 0.00 0.00 77 1006.9
20260505171030 77 201 9.6 25.2 0.00 0.00 0.00 77 1006.9
20260505170529 77 170 11.3 24.3 0.00 0.00 0.00 77 1007.0
20260505170045 77 175 15.6 24.3 0.00 0.00 0.00 77 1007.0
20260505165529 77 170 9.6 19.1 0.00 0.00 0.00 77 1007.0
20260505165029 77 199 9.6 23.5 0.00 0.00 0.00 77 1006.9
20260505164546 77 213 11.3 24.3 0.00 0.00 0.00 77 1007.0
20260505164028 77 188 10.4 24.3 0.00 0.00 0.00 78 1007.0
20260505163529 77 206 11.3 23.5 0.00 0.00 0.00 78 1007.0
20260505163046 77 180 11.3 23.5 0.00 0.00 0.00 78 1007.0
20260505162527 76 214 8.7 21.7 0.00 0.00 0.00 79 1007.1
20260505162027 76 238 11.3 22.6 0.00 0.00 0.00 78 1007.2
20260505161543 76 208 10.4 23.5 0.00 0.00 0.00 79 1007.1
20260505161029 76 173 13.0 26.1 0.00 0.00 0.00 80 1007.1
20260505160530 76 153 13.9 26.1 0.00 0.00 0.00 79 1007.1
20260505153045 75 194 13.0 30.4 0.00 0.00 0.00 80 1007.2
20260505152528 74 157 13.9 30.4 0.00 0.00 0.00 81 1007.2
20260505152029 74 205 12.2 26.9 0.00 0.00 0.00 81 1007.2
20260505151551 74 206 11.3 26.9 0.00 0.00 0.00 81 1007.1
20260505151027 74 196 10.4 26.1 0.00 0.00 0.00 81 1007.2
20260505150529 74 167 11.3 26.1 0.00 0.00 0.00 81 1007.3
20260505140527 73 181 11.3 25.2 0.00 0.00 0.00 82 1007.1
20260505140108 73 211 13.0 23.5 0.00 0.00 0.00 82 1006.9
20260505125028 71 153 9.6 22.6 0.00 0.00 0.00 84 1006.8
20260505124547 71 206 11.3 22.6 0.00 0.00 0.00 84 1006.7
20260505124029 71 165 7.0 17.4 0.00 0.00 0.00 84 1006.7
20260505123529 71 165 10.4 17.4 0.00 0.00 0.00 84 1006.5
20260505123049 71 196 8.7 17.4 0.00 0.00 0.00 85 1006.5
20260505122529 71 206 7.0 16.5 0.00 0.00 0.00 85 1006.5
20260505122031 71 182 7.0 16.5 0.00 0.00 0.00 85 1006.6
20260505121543 71 151 7.0 16.5 0.00 0.00 0.00 85 1006.3
20260505121028 71 150 4.3 13.9 0.00 0.00 0.00 86 1006.4
20260505120528 71 177 8.7 16.5 0.00 0.00 0.00 86 1006.3
20260505120051 71 175 8.7 17.4 0.00 0.00 0.00 86 1006.4
20260505115529 71 155 7.0 18.2 0.00 0.00 0.00 86 1006.4
20260505115029 71 194 7.8 18.2 0.00 0.00 0.00 86 1006.4
20260505114553 71 176 7.8 16.5 0.00 0.00 0.00 86 1006.2
20260505114027 71 173 8.7 25.2 0.00 0.00 0.00 86 1006.1
20260505113526 71 169 11.3 25.2 0.00 0.00 0.00 86 1006.2
20260505113043 71 192 7.0 16.5 0.00 0.00 0.00 86 1006.2
20260505112529 71 180 8.7 18.2 0.00 0.00 0.00 86 1006.1
20260505112124 71 178 5.2 20.0 0.00 0.00 0.00 86 1006.1
20260505111539 71 185 7.8 20.0 0.00 0.00 0.00 86 1005.8
20260505111028 71 180 9.6 19.1 0.00 0.00 0.00 86 1005.8
20260505110528 71 176 10.4 19.1 0.00 0.00 0.00 86 1005.9
20260505102026 71 175 7.8 16.5 0.00 0.00 0.00 85 1006.3
20260505101549 70 190 8.7 18.2 0.00 0.00 0.00 85 1006.3
20260505101029 71 192 9.6 20.9 0.00 0.00 0.00 85 1006.4
20260505100529 71 196 8.7 20.9 0.00 0.00 0.00 85 1006.3
20260505100047 71 207 7.8 18.2 0.00 0.00 0.00 84 1006.4
20260505095529 71 200 8.7 27.8 0.00 0.00 0.00 84 1006.4
20260505095031 71 196 12.2 27.8 0.00 0.00 0.00 84 1006.2
20260505094545 71 189 9.6 22.6 0.00 0.00 0.00 84 1006.3
20260505094028 71 207 7.8 22.6 0.00 0.00 0.00 84 1006.3
20260505093528 71 192 11.3 26.9 0.00 0.00 0.00 84 1006.2
20260505093055 71 160 11.3 26.9 0.00 0.00 0.00 84 1006.0
20260505092529 71 156 12.2 25.2 0.00 0.00 0.00 84 1006.0
20260505092028 71 175 12.2 22.6 0.00 0.00 0.00 83 1006.1
20260505091600 71 169 12.2 22.6 0.00 0.00 0.00 83 1006.1
20260505091028 71 148 9.6 20.9 0.00 0.00 0.00 83 1006.2
20260505090528 71 212 10.4 21.7 0.00 0.00 0.00 83 1006.1
20260505090045 71 181 11.3 21.7 0.00 0.00 0.00 83 1006.1
20260505085531 71 190 10.4 20.9 0.00 0.00 0.00 83 1006.1
20260505085031 71 168 9.6 21.7 0.00 0.00 0.00 83 1006.1
20260505084544 71 201 11.3 21.7 0.00 0.00 0.00 83 1006.2
20260505084028 71 209 8.7 19.1 0.00 0.00 0.00 83 1006.2
20260505083528 71 169 10.4 19.1 0.00 0.00 0.00 83 1006.2
20260505083051 71 180 9.6 21.7 0.00 0.00 0.00 83 1006.2
20260505082533 71 176 11.3 21.7 0.00 0.00 0.00 83 1006.4
20260505082029 71 199 8.7 22.6 0.00 0.00 0.00 83 1006.4
20260505081546 71 166 12.2 22.6 0.00 0.00 0.00 83 1006.6
20260505081029 71 176 12.2 26.1 0.00 0.00 0.00 83 1006.5
20260505080529 71 194 11.3 26.1 0.00 0.00 0.00 83 1006.5
20260505080046 71 184 10.4 18.2 0.00 0.00 0.00 83 1006.6
20260505075528 71 192 9.6 20.0 0.00 0.00 0.00 83 1006.8
20260505075028 71 159 11.3 20.0 0.00 0.00 0.00 83 1006.7
20260505074544 71 178 9.6 20.9 0.00 0.00 0.00 83 1007.0
20260505074029 71 165 8.7 20.9 0.00 0.00 0.00 83 1007.1
20260505073530 71 184 9.6 18.2 0.00 0.00 0.00 83 1007.1
20260505073052 71 171 10.4 20.9 0.00 0.00 0.00 83 1007.2
20260505072529 71 171 10.4 21.7 0.00 0.00 0.00 83 1007.6
20260505072031 71 192 9.6 21.7 0.00 0.00 0.00 82 1007.5
20260505071553 71 178 13.0 20.9 0.00 0.00 0.00 82 1007.5
20260505071031 71 181 8.7 20.0 0.00 0.00 0.00 82 1007.4
20260505070529 71 184 11.3 20.0 0.00 0.00 0.00 82 1007.6
20260505070100 71 184 10.4 22.6 0.00 0.00 0.00 82 1007.6
20260505065529 71 198 8.7 22.6 0.00 0.00 0.00 81 1007.6
20260505065027 71 200 10.4 21.7 0.00 0.00 0.00 81 1007.7
20260505064551 72 177 8.7 22.6 0.00 0.00 0.00 81 1007.8
20260505064031 72 149 10.4 28.7 0.00 0.00 0.00 81 1007.9
20260505063528 72 171 8.7 28.7 0.00 0.00 0.00 81 1008.1
20260505063044 72 187 10.4 18.2 0.00 0.00 0.00 81 1007.9
20260505062531 72 155 7.8 18.2 0.00 0.00 0.00 80 1007.9
20260505062027 72 189 9.6 22.6 0.00 0.00 0.00 80 1007.9
20260505061547 72 158 12.2 22.6 0.00 0.00 0.00 80 1007.8
20260505061027 72 210 8.7 20.0 0.00 0.00 0.00 80 1007.9
20260505060529 72 156 8.7 18.2 0.00 0.00 0.00 79 1007.9
20260505060052 72 159 8.7 19.1 0.00 0.00 0.00 79 1008.0
20260505055530 72 159 10.4 20.9 0.00 0.00 0.00 79 1007.9
20260505055029 72 136 8.7 20.9 0.00 0.00 0.00 79 1008.0
20260505054539 73 188 7.0 15.6 0.00 0.00 0.00 79 1008.1
20260505054028 73 159 7.0 15.6 0.00 0.00 0.00 79 1008.0
20260505053528 73 186 7.8 16.5 0.00 0.00 0.00 78 1008.1
20260505053049 73 174 7.8 16.5 0.00 0.00 0.00 78 1008.1
20260505052528 73 195 6.1 13.9 0.00 0.00 0.00 78 1008.1
20260505052028 73 163 7.0 14.8 0.00 0.00 0.00 78 1008.1
20260505051557 73 140 5.2 16.5 0.00 0.00 0.00 78 1008.1
20260505051028 73 177 7.8 16.5 0.00 0.00 0.00 78 1008.1
20260505050532 73 180 7.0 16.5 0.00 0.00 0.00 78 1008.0
20260505041543 73 175 5.2 13.0 0.00 0.00 0.00 77 1008.1
20260505041029 73 163 6.1 10.4 0.00 0.00 0.00 77 1008.2
20260505040529 73 165 6.1 13.0 0.00 0.00 0.00 77 1008.1
20260505040047 73 175 6.1 13.0 0.00 0.00 0.00 77 1008.2
20260505035532 73 152 7.0 13.0 0.00 0.00 0.00 76 1008.0
20260505035029 73 142 7.0 13.0 0.00 0.00 0.00 76 1008.0
20260505034546 73 172 4.3 9.6 0.00 0.00 0.00 76 1008.0
20260505034026 73 165 5.2 9.6 0.00 0.00 0.00 76 1008.1
20260505033528 73 158 5.2 9.6 0.00 0.00 0.00 76 1008.1
20260505033045 73 179 5.2 9.6 0.00 0.00 0.00 75 1008.3
20260505032529 73 150 4.3 11.3 0.00 0.00 0.00 75 1008.3
20260505032029 73 172 5.2 11.3 0.00 0.00 0.00 75 1008.3
20260505031552 73 154 5.2 13.0 0.00 0.00 0.00 75 1008.0
20260505031028 73 136 6.1 13.0 0.00 0.00 0.00 74 1008.0
20260505030528 73 177 5.2 10.4 0.00 0.00 0.00 74 1008.0
20260505030047 74 161 5.2 10.4 0.00 0.00 0.00 74 1008.1
20260505025529 74 142 5.2 10.4 0.00 0.00 0.00 73 1008.1
20260505025027 74 136 5.2 11.3 0.00 0.00 0.00 73 1007.9
20260505024549 74 167 4.3 11.3 0.00 0.00 0.00 73 1007.8
20260505024028 74 209 4.3 9.6 0.00 0.00 0.00 73 1007.8
20260505023528 74 157 5.2 12.2 0.00 0.00 0.00 73 1008.0
20260505023051 74 136 5.2 12.2 0.00 0.00 0.00 72 1007.9
20260505022529 74 149 7.0 12.2 0.00 0.00 0.00 72 1007.7
20260505022029 75 148 5.2 9.6 0.00 0.00 0.00 71 1007.8
20260505021545 75 154 4.3 10.4 0.00 0.00 0.00 71 1007.7
20260505021029 75 156 6.1 10.4 0.00 0.00 0.00 71 1007.8
20260505020528 75 144 5.2 10.4 0.00 0.00 0.00 71 1007.8
20260505020046 75 148 5.2 10.4 0.00 0.00 0.00 71 1007.8
20260505015528 75 120 4.3 8.7 0.00 0.00 0.00 71 1007.8
20260505015029 75 124 4.3 8.7 0.00 0.00 0.00 71 1007.7
20260505014546 75 139 5.2 8.7 0.00 0.00 0.00 70 1007.8
20260505014029 75 153 4.3 7.8 0.00 0.00 0.00 70 1007.7
20260505013528 75 165 4.3 8.7 0.00 0.00 0.00 69 1007.7
20260505013059 76 140 4.3 8.7 0.00 0.00 0.00 69 1007.6
20260505012528 76 138 4.3 7.8 0.00 0.00 0.00 68 1007.7
20260505012028 76 156 3.5 8.7 0.00 0.00 0.00 68 1007.7
20260505011547 76 184 4.3 9.6 0.00 0.00 0.00 67 1007.6
20260505011028 77 155 5.2 10.4 0.00 0.00 0.00 67 1007.8
20260505010525 77 169 3.5 14.8 0.00 0.00 0.00 66 1007.8
20260505010055 77 132 6.1 14.8 0.00 0.00 0.00 66 1007.7
20260505005529 77 135 5.2 10.4 0.00 0.00 0.00 66 1007.6
20260505005029 77 179 6.1 10.4 0.00 0.00 0.00 65 1007.8
20260505004545 78 162 6.1 13.9 0.00 0.00 0.00 65 1007.9
20260505004028 78 167 6.1 14.8 0.00 0.00 0.00 65 1007.8
20260505003533 78 174 7.0 14.8 0.00 0.00 0.00 64 1007.8
20260505003042 78 163 6.1 14.8 0.00 0.00 0.00 64 1007.8
20260505002526 78 186 5.2 15.6 0.00 0.00 0.00 63 1007.8
20260505002026 79 187 8.7 15.6 0.00 0.00 0.00 63 1007.9
20260505001540 79 127 6.1 18.2 0.00 0.00 0.00 63 1007.9
20260505001029 79 177 10.4 18.2 0.00 0.00 0.00 62 1007.9
20260505000531 79 182 7.8 14.8 0.00 0.00 0.00 62 1007.9
20260505000051 79 146 6.1 22.6 0.00 0.00 0.00 62 1008.0
20260504235526 79 154 12.2 22.6 0.00 0.00 0.00 62 1008.0
20260504235026 79 175 7.0 15.6 0.00 0.00 0.00 62 1008.1
20260504234544 79 180 7.0 17.4 0.00 0.00 0.00 62 1008.1
20260504234031 79 175 8.7 20.9 0.00 0.00 0.00 61 1008.0
20260504233526 80 159 8.7 25.2 0.00 0.00 0.00 61 1008.2
20260504233047 80 168 12.2 25.2 0.00 0.00 0.00 60 1008.1
20260504232527 80 202 13.9 24.3 0.00 0.00 0.00 60 1008.1
20260504232027 80 196 9.6 21.7 0.00 0.00 0.00 60 1008.2
20260504231543 80 169 9.6 20.9 0.00 0.00 0.00 60 1008.3
20260504231028 80 185 11.3 23.5 0.00 0.00 0.00 60 1008.2
20260504230526 80 171 9.6 23.5 0.00 0.00 0.00 59 1008.3
20260504230044 80 159 9.6 19.1 0.00 0.00 0.00 59 1008.5
20260504225528 80 169 12.2 22.6 0.00 0.00 0.00 59 1008.4
20260504225025 80 184 13.0 24.3 0.00 0.00 0.00 59 1008.3
20260504224538 80 176 12.2 24.3 0.00 0.00 0.00 58 1008.5
20260504224028 80 165 11.3 26.1 0.00 0.00 0.00 59 1008.6
20260504223526 80 195 13.0 26.1 0.00 0.00 0.00 59 1008.6
20260504223044 80 179 12.2 24.3 0.00 0.00 0.00 59 1008.8
20260504222530 80 196 13.0 21.7 0.00 0.00 0.00 58 1008.7
20260504222026 80 186 11.3 22.6 0.00 0.00 0.00 58 1008.7
20260504221544 81 166 10.4 23.5 0.00 0.00 0.00 57 1008.8
20260504221026 81 160 11.3 23.5 0.00 0.00 0.00 57 1008.9
20260504220526 81 180 11.3 21.7 0.00 0.00 0.00 57 1008.8
20260504220047 81 129 9.6 26.9 0.00 0.00 0.00 57 1008.8
20260504215529 81 205 10.4 26.9 0.00 0.00 0.00 57 1008.9
20260504215029 81 200 11.3 26.1 0.00 0.00 0.00 56 1009.0
20260504214545 81 178 10.4 19.1 0.00 0.00 0.00 56 1009.0
20260504214026 81 221 7.8 20.9 0.00 0.00 0.00 57 1009.1
20260504213531 81 164 10.4 20.9 0.00 0.00 0.00 56 1009.1
20260504213042 81 153 9.6 20.0 0.00 0.00 0.00 56 1009.1
20260504212528 82 167 10.4 21.7 0.00 0.00 0.00 55 1009.4
20260504212029 82 142 11.3 21.7 0.00 0.00 0.00 56 1009.5
20260504211551 81 145 9.6 25.2 0.00 0.00 0.00 56 1009.7
20260504211027 81 167 11.3 25.2 0.00 0.00 0.00 56 1009.4
20260504210526 81 175 14.8 23.5 0.00 0.00 0.00 55 1009.5
20260504210050 81 178 11.3 22.6 0.00 0.00 0.00 55 1009.9
20260504205527 81 211 11.3 22.6 0.00 0.00 0.00 55 1009.8
20260504205027 82 201 12.2 20.0 0.00 0.00 0.00 54 1010.0
20260504204543 81 180 10.4 23.5 0.00 0.00 0.00 54 1010.0
20260504204028 81 146 9.6 23.5 0.00 0.00 0.00 54 1010.2
20260504203532 81 184 11.3 20.9 0.00 0.00 0.00 54 1010.4
20260504203046 81 216 11.3 24.3 0.00 0.00 0.00 54 1010.4
20260504202528 81 177 10.4 24.3 0.00 0.00 0.00 54 1010.8
20260504202027 82 192 8.7 18.2 0.00 0.00 0.00 54 1010.8
20260504201550 81 195 7.0 20.9 0.00 0.00 0.00 54 1010.8
20260504201026 81 169 7.8 20.9 0.00 0.00 0.00 54 1011.0
20260504200528 81 224 11.3 20.9 0.00 0.00 0.00 53 1011.0
20260504200048 81 173 11.3 23.5 0.00 0.00 0.00 53 1011.0
20260504195526 81 190 9.6 25.2 0.00 0.00 0.00 53 1011.1